www.pogodaiklimat.ru

Погода и климат >> Архив погоды >> Австралия >> Centre Island


ПОГОДА в Centre Island

  • Прогноз погоды в Centre Island
  • Монитор погоды в Centre Island
  • Климат города

АРХИВ ПОГОДЫ в Centre Island

Время (UTC), дата Ветер
(напр.,м/с)
 
Видим.   Явления Облачность Т
(С)
Тd
(С)
f
(%)
Тe
(С)
Тes
(С)
Комфортность P
(гПа)
Po
(гПа)
Тmin
(С)
Tmax
(С)
R
(мм)
R24
(мм)
S
(см)
20 10.10 С 2 н/о н/о +25.7 +23.9 90 +35 +35 очень
душно
1010.4 1009.0
21 10.10 З 2 н/о н/о +26.0 +24.0 89 +36 +36 очень
душно
1011.3 1009.9
23 10.10 С 4 н/о н/о +30.0 +22.4 64 +39 +39 очень
душно
1013.5 1012.1
00 11.10 С 5 н/о н/о +30.7 +22.8 63 +41 +41 опасность
перегрева
1013.9 1012.5
02 11.10 С 6 н/о н/о +32.5 +17.9 42 +37 +37 очень
душно
1012.9 1011.5
03 11.10 С 5 н/о н/о +33.8 +15.3 33 +36 +36 очень
душно
1012.4 1011.0
05 11.10 С 4 н/о н/о +34.1 +12.4 27 +34 +34 очень
жарко
1010.9 1009.5
06 11.10 С 4 н/о н/о +33.2 +16.5 37 +36 +36 очень
душно
1010.2 1008.8
08 11.10 СВ 5 н/о н/о +29.7 +21.1 60 +37 +37 очень
душно
1010.3 1008.9
09 11.10 С 5 н/о н/о +28.5 +21.8 67 +37 +37 очень
душно
1011.0 1009.6
11 11.10 ЮВ 8 н/о н/о +29.2 +22.4 67 +38 +38 очень
душно
1012.9 1011.5
12 11.10 ЮВ 11 н/о н/о +28.6 +17.8 52 +33 +33 очень
душно
1013.6 1012.2
14 11.10 В 8 н/о н/о +28.1 +17.0 51 +32 +32 душно 1013.0 1011.6
15 11.10 В 9 н/о н/о +27.7 +16.9 52 +32 +32 очень
душно
1012.3 1010.9
17 11.10 СВ 6 н/о н/о +26.7 +18.6 61 +32 +32 очень
душно
1011.0 1009.6
18 11.10 СВ 6 н/о н/о +26.7 +19.6 65 +32 +32 очень
душно
1010.7 1009.3
20 11.10 ЮВ 8 н/о н/о +25.9 +15.0 51 +29 +29 душно 1012.6 1011.2
21 11.10 Ю 8 н/о н/о +25.8 +14.9 51 +29 +29 душно 1013.3 1011.9
23 11.10 Ю 6 н/о н/о +28.1 +14.0 42 +30 +30 жарко 1014.4 1013.0
00 12.10 В 5 н/о н/о +29.2 +15.7 44 +32 +32 душно 1014.5 1013.1
02 12.10 СВ 2 н/о н/о +30.7 +19.1 50 +36 +36 очень
душно
1013.6 1012.2
03 12.10 ЮВ 4 н/о н/о +30.4 +20.0 54 +37 +37 очень
душно
1012.4 1011.0
05 12.10 С 3 н/о н/о +31.2 +21.1 55 +39 +39 очень
душно
1010.0 1008.6
06 12.10 С 5 н/о н/о +31.1 +21.3 56 +39 +39 очень
душно
1009.4 1008.0
08 12.10 СВ 8 н/о н/о +28.2 +22.2 70 +37 +37 очень
душно
1008.8 1007.4
09 12.10 СВ 7 н/о н/о +27.5 +22.7 75 +36 +36 очень
душно
1008.9 1007.5
11 12.10 С 4 н/о н/о +27.2 +22.8 77 +36 +36 очень
душно
1009.6 1008.2
12 12.10 С 3 н/о н/о +26.8 +22.4 77 +35 +35 очень
душно
1010.3 1008.9
14 12.10 СЗ 2 н/о н/о +26.1 +23.4 85 +35 +35 очень
душно
1010.4 1009.0
15 12.10 СЗ 3 н/о н/о +26.1 +23.6 86 +35 +35 очень
душно
1010.7 1009.3
17 12.10 ЮЗ 3 н/о н/о +26.2 +23.7 86 +36 +36 очень
душно
1009.9 1008.5
18 12.10 ЮЗ 2 н/о н/о +25.8 +23.5 87 +35 +35 очень
душно
1009.8 1008.4
20 12.10 З 3 н/о н/о +25.3 +23.9 92 +35 +35 очень
душно
1011.0 1009.6
21 12.10 З 3 н/о н/о +25.3 +23.7 91 +34 +34 очень
душно
1011.4 1010.0
23 12.10 З 5 н/о н/о +28.7 +23.1 72 +39 +39 очень
душно
1012.4 1011.0
00 13.10 З 4 н/о н/о +30.7 +22.8 63 +41 +41 опасность
перегрева
1012.0 1010.6
02 13.10 ЮВ 2 н/о н/о +33.4 +15.8 35 +36 +36 очень
душно
1010.8 1009.4
03 13.10 СВ 3 н/о н/о +34.3 +23.9 55 +46 +46 опасность
перегрева
1009.8 1008.4
05 13.10 С 6 н/о н/о +33.9 +23.0 53 +44 +44 опасность
перегрева
1007.7 1006.3
06 13.10 С 6 н/о н/о +33.4 +23.4 56 +44 +44 опасность
перегрева
1007.4 1006.0
08 13.10 С 7 н/о н/о +29.8 +23.3 68 +40 +40 очень
душно
1007.4 1006.0
09 13.10 С 6 н/о н/о +28.9 +22.4 68 +38 +38 очень
душно
1008.2 1006.8
11 13.10 С 6 н/о н/о +27.7 +24.1 81 +39 +39 очень
душно
1009.0 1007.6
12 13.10 С 5 н/о н/о +27.4 +24.5 84 +39 +39 очень
душно
1009.5 1008.1
14 13.10 СВ 5 н/о н/о +27.3 +24.6 85 +39 +39 очень
душно
1010.1 1008.7
15 13.10 С 5 н/о н/о +27.2 +24.3 84 +38 +38 очень
душно
1009.9 1008.5
17 13.10 С 4 н/о н/о +27.1 +23.3 80 +37 +37 очень
душно
1009.4 1008.0
18 13.10 С 4 н/о н/о +26.6 +23.3 82 +36 +36 очень
душно
1009.4 1008.0
20 13.10 СЗ 3 н/о н/о +25.9 +23.0 84 +35 +35 очень
душно
1010.6 1009.2
21 13.10 СЗ 3 н/о н/о +26.1 +23.2 84 +35 +35 очень
душно
1011.1 1009.7
23 13.10 СЗ 6 н/о н/о +29.6 +23.3 69 +40 +40 очень
душно
1012.0 1010.6
00 14.10 З 4 н/о н/о +30.7 +22.8 63 +41 +41 опасность
перегрева
1011.7 1010.3
02 14.10 ЮВ 3 н/о н/о +32.5 +23.2 58 +43 +43 опасность
перегрева
1010.5 1009.1
03 14.10 СВ 7 н/о н/о +32.8 +24.3 61 +45 +45 опасность
перегрева
1010.0 1008.6
05 14.10 СВ 8 н/о н/о +31.6 +24.2 65 +44 +44 опасность
перегрева
1008.5 1007.1
06 14.10 С 6 н/о н/о +32.6 +23.3 58 +43 +43 опасность
перегрева
1007.8 1006.4
08 14.10 СВ 8 н/о н/о +29.4 +23.4 70 +40 +40 очень
душно
1008.5 1007.1
09 14.10 СВ 8 н/о н/о +28.4 +24.0 77 +39 +39 очень
душно
1009.2 1007.8
11 14.10 С 6 н/о н/о +27.9 +23.3 76 +38 +38 очень
душно
1010.5 1009.1
12 14.10 С 5 н/о н/о +27.6 +22.8 75 +37 +37 очень
душно
1011.1 1009.7
14 14.10 С 5 н/о н/о +27.0 +24.1 84 +37 +37 очень
душно
1011.0 1009.6
15 14.10 С 5 н/о н/о +26.9 +24.4 86 +38 +38 очень
душно
1010.4 1009.0
17 14.10 С 5 н/о н/о +26.4 +23.9 86 +36 +36 очень
душно
1009.2 1007.8
18 14.10 С 5 н/о н/о +26.1 +24.1 89 +36 +36 очень
душно
1009.1 1007.7
20 14.10 СЗ 4 н/о н/о +26.4 +23.5 84 +36 +36 очень
душно
1010.8 1009.4
21 14.10 СЗ 5 н/о н/о +26.8 +23.3 81 +36 +36 очень
душно
1011.2 1009.8
23 14.10 СЗ 6 н/о н/о +30.0 +22.4 64 +39 +39 очень
душно
1012.4 1011.0
00 15.10 СЗ 6 н/о н/о +31.0 +23.4 64 +42 +42 опасность
перегрева
1013.0 1011.6
02 15.10 СЗ 6 н/о н/о +32.3 +22.1 55 +41 +41 опасность
перегрева
1012.1 1010.7
03 15.10 С 7 н/о н/о +32.7 +21.2 51 +40 +40 очень
душно
1011.2 1009.8
05 15.10 С 6 н/о н/о +32.7 +19.6 46 +38 +38 очень
душно
1009.9 1008.5
06 15.10 С 5 н/о н/о +32.4 +20.6 50 +39 +39 очень
душно
1009.5 1008.1
08 15.10 СВ 6 н/о н/о +28.8 +23.5 73 +39 +39 очень
душно
1009.9 1008.5
09 15.10 СВ 6 н/о н/о +28.0 +23.4 76 +38 +38 очень
душно
1010.4 1009.0
11 15.10 С 5 н/о н/о +28.0 +23.2 75 +38 +38 очень
душно
1010.9 1009.5
12 15.10 С 3 н/о н/о +27.7 +23.5 78 +38 +38 очень
душно
1011.8 1010.4
14 15.10 СВ 5 н/о н/о +27.5 +23.9 81 +38 +38 очень
душно
1011.5 1010.1
15 15.10 СВ 6 н/о н/о +27.3 +24.2 83 +38 +38 очень
душно
1011.0 1009.6
17 15.10 СВ 6 н/о н/о +27.3 +24.2 83 +38 +38 очень
душно
1009.6 1008.2
18 15.10 С 5 н/о н/о +27.1 +24.0 83 +37 +37 очень
душно
1009.6 1008.2
20 15.10 СЗ 3 н/о н/о +26.8 +24.3 86 +37 +37 очень
душно
1010.9 1009.5
21 15.10 С 5 н/о н/о +27.2 +24.3 84 +38 +38 очень
душно
1011.3 1009.9
23 15.10 С 5 н/о н/о +30.1 +23.8 69 +41 +41 опасность
перегрева
1012.6 1011.2
00 16.10 С 5 н/о н/о +31.0 +23.6 65 +42 +42 опасность
перегрева
1013.0 1011.6
02 16.10 С 7 н/о н/о +32.8 +22.3 54 +42 +42 опасность
перегрева
1011.3 1009.9
03 16.10 С 6 н/о н/о +32.6 +23.3 58 +43 +43 опасность
перегрева
1010.6 1009.2
05 16.10 С 5 н/о н/о +33.0 +21.5 51 +41 +41 опасность
перегрева
1009.7 1008.3
06 16.10 СВ 5 н/о н/о +31.8 +23.9 63 +43 +43 опасность
перегрева
1009.7 1008.3
08 16.10 В 8 н/о н/о +29.2 +24.1 74 +41 +41 опасность
перегрева
1011.1 1009.7
09 16.10 В 12 н/о н/о +28.2 +24.4 80 +40 +40 очень
душно
1011.4 1010.0
11 16.10 В 9 н/о н/о +27.3 +23.1 78 +37 +37 очень
душно
1011.8 1010.4
12 16.10 В 7 н/о н/о +27.4 +22.8 76 +36 +36 очень
душно
1011.8 1010.4
14 16.10 В 6 н/о н/о +27.5 +23.3 78 +37 +37 очень
душно
1012.2 1010.8
15 16.10 СВ 4 н/о н/о +27.3 +23.3 79 +37 +37 очень
душно
1011.5 1010.1
17 16.10 ЮВ 3 н/о н/о +27.4 +23.6 80 +37 +37 очень
душно
1010.9 1009.5
18 16.10 ЮЗ 5 н/о н/о +26.9 +23.6 82 +37 +37 очень
душно
1010.8 1009.4
20 16.10 Ю 5 н/о н/о +26.5 +23.0 81 +35 +35 очень
душно
1011.7 1010.3
21 16.10 ЮВ 7 н/о н/о +26.4 +22.5 79 +35 +35 очень
душно
1012.5 1011.1
23 16.10 ЮВ 8 н/о н/о +28.9 +22.9 70 +38 +38 очень
душно
1013.9 1012.5
00 17.10 ЮВ 6 н/о н/о +29.9 +22.6 65 +39 +39 очень
душно
1013.7 1012.3
02 17.10 В 5 н/о н/о +31.8 +22.5 58 +41 +41 опасность
перегрева
1012.7 1011.3
03 17.10 В 3 н/о н/о +31.9 +21.4 54 +40 +40 очень
душно
1011.7 1010.3
05 17.10 С 6 н/о н/о +31.7 +21.5 55 +40 +40 очень
душно
1009.9 1008.5
06 17.10 С 7 н/о н/о +30.1 +22.5 64 +39 +39 очень
душно
1009.3 1007.9
08 17.10 С 5 н/о н/о +28.7 +22.9 71 +38 +38 очень
душно
1009.9 1008.5
09 17.10 С 4 н/о н/о +28.2 +23.1 74 +38 +38 очень
душно
1010.6 1009.2
11 17.10 С 3 н/о н/о +28.0 +23.2 75 +38 +38 очень
душно
1011.0 1009.6
12 17.10 СЗ 2 н/о н/о +28.1 +23.0 74 +38 +38 очень
душно
1011.7 1010.3
14 17.10 Ю 7 н/о н/о +27.3 +18.6 59 +32 +32 очень
душно
1011.2 1009.8
15 17.10 ЮВ 4 н/о н/о +26.9 +20.7 69 +34 +34 очень
душно
1010.7 1009.3
17 17.10 Ю 6 н/о н/о +26.9 +20.5 68 +33 +33 очень
душно
1009.9 1008.5

 

Местоположение метеостанции Centre Island (Северная территория, Австралия): широта -15.75 долгота 136.80 высота над уровнем моря 13 м.

В архиве по умолчанию представлена погода в Centre Island за последнюю неделю. Архивные данные за месяц целиком и за предыдущие месяцы, начиная с января 2011 года, Вы можете получить, выбрав интересующий диапазон дат из раскрывающегося списка и нажав кнопку "Ввод!".


*Определитесь, кто Вы:
робот инопланетянин человек

Внимание! Время в таблицах - всемирное. Для получения местного времени необходимо прибавить поправку, которая в Centre Island равна 9.5 ч.

Смотрите также архив погоды в соседних городах и на ближайших метеорологических станциях:

Погода в Borroloola (Северная территория, Австралия) (65 км)
Погода в Mcarthur River Mine (Северная территория, Австралия) (109 км)
Погода в Groote Eylandt Airport (Северная территория, Австралия) (200 км)
Погода в North East Island (Северная территория, Австралия) (234 км)
Погода в Mornington Island (Квинсленд, Австралия) (273 км)
Погода в Bulman Aws (Северная территория, Австралия) (352 км)
Погода в Burketown Airport (Квинсленд, Австралия) (366 км)
Погода в Daly Waters Aws (Северная территория, Австралия) (371 км)
Погода в Gove Airport (Северная территория, Австралия) (386 км)
Погода в Century Mine (Квинсленд, Австралия) (390 км)

Пояснения к столбцам:

Ветер - указаны скорость ветра в м/с - средняя за 10 мин, порывы в срок и между сроками (в фигурных скобках) и направление, откуда дует ветер: С - северный, СВ - северо-восточный, В - восточный, ЮВ - юго-восточный, Ю - южный, ЮЗ - юго-западный, З - западный, СЗ - северо-западный.
Видимость - горизонтальная дальность видимости в метрах или километрах. При видимости от 1 до 10 км при отсутствии осадков обычно наблюдается дымка, при ухудшении видимости до 1 км и менее - туман. В сухую погоду видимость может ухудшаться дымом, пылью или мглою.
Явления - указаны атмосферные явления, наблюдавшиеся в срок или в последний час перед сроком; фигурными скобками обозначены явления, наблюдавшиеся между сроками (за 1-3 часа до срока); квадратными скобками обозначены град или гололедные отложения с указанием их диаметра в мм.
Облачность - указаны через наклонную черту общая и нижняя облачность в баллах и высота нижней границы облаков в метрах; квадратными скобками обозначены формы облаков: Ci - перистые, Cs - перисто-слоистые, Cc - перисто-кучевые, Ac - высококучевые, As - высокослоистые, Sc - слоисто-кучевые, Ns - слоисто-дождевые, Cu - кучевые, Cb - кучево-дождевые. Подробнее классификацию облаков см. в Атласе облаков (PDF).
T - Температура воздуха - температура, измеренная на высоте 2 м над землей.
Td - Температура точки росы - температура, при понижении до которой содержащийся в воздухе водяной пар достигнет насыщения.
f - Относительная влажность воздуха - влажноcть воздуха, измеренная на высоте 2 м над землей.
Te - Эффективная температура - температура, которую ощущает одетый по сезону человек в тени. Характеристика душности погоды. При расчете учитывается влияние влажности воздуха и скорости ветра на теплоощущения человека.
Tes - Эффективная температура на солнце - температура, которую ощущает человек, с поправкой на солнечный нагрев. Характеристика знойности погоды. Зависит от высоты солнца над горизонтом, облачности и скорости ветра. Ночью, в пасмурную погоду, а также при ветре 12 м/с и более поправка равна нулю.
P - Атмосферное давление - приведенное к уровню моря атмосферное давление.
Po - Атмосферное давление - измеренное на уровне метеостанции атмосферное давление.
Tmin - Минимальная температура - минимум температуры воздуха на высоте 2 м над землей.
Tmax - Максимальная температура - максимум температуры воздуха на высоте 2 м над землей.
R - Количество осадков - Количество выпавших осадков за период времени, мм. При наведении курсора мыши на число - период времени, за который выпало указанное количество осадков.
R24 - Количество осадков - Количество выпавших осадков за 24 часа, мм.
S - Снежный покров - Высота снежного покрова, см. При наведении курсора мыши на число - состояние снежного покрова и степень покрытия местности в баллах.